Fruitland, IA

3:46 PM CDT on August 30, 2016 (GMT -0500)
Muscatine Municipal

Weather History for KMUT - October, 2012

Change the Weather History Date:

Tuesday, October 23, 2012

  Actual Average Record
Temperature  
Mean Temperature 68 °F -  
Max Temperature 75 °F 63 °F 85 °F (1963)
Min Temperature 60 °F 43 °F 25 °F (1969)
Cooling Degree Days 2    
Growing Degree Days 18 (Base 50)    
Moisture  
Dew Point 61 °F    
Average Humidity 77    
Maximum Humidity 88    
Minimum Humidity 61    
Precipitation  
Precipitation 0.04 in - - ()
Sea Level Pressure  
Sea Level Pressure 29.83 in    
Wind  
Wind Speed 4 mph (SSE)    
Max Wind Speed 15 mph    
Max Gust Speed 18 mph    
Visibility 7 miles    
Events Fog , Rain    
Averages and records for this station are not official NWS values.
T = Trace of Precipitation, MM = Missing Value Source: NWS Daily Summary

Daily Weather History Graph

Daily Weather History Graph

Search for Another Location

Airport or City:

Trip Planner

Search our weather history database for the weather conditions in past years. The results will help you decide how hot, cold, wet, or windy it might be!

Date:

Astronomy

Oct. 23, 2012 Rise Set
Actual Time 7:26 AM CDT 6:10 PM CDT
Civil Twilight 6:57 AM CDT 6:39 PM CDT
Nautical Twilight 6:25 AM CDT 7:11 PM CDT
Astronomical Twilight 5:53 AM CDT 7:43 PM CDT
Moon 2:58 PM CDT (10/23) 1:14 AM CDT (10/23)
Length of Visible Light 11h 41m
Length of Day
10h 44m
Waxing Gibbous, 67% of the Moon is Illuminated
Oct 23
Waxing Gibbous
Oct 29
Full
Nov 6
Last Quarter
Nov 13
New
Nov 20
First Quarter

Hourly Weather History & Observations

Time (CDT) Temp. Dew Point Humidity Pressure Visibility Wind Dir Wind Speed Gust Speed Precip Events Conditions
12:15 AM 64.4 °F 60.8 °F 88% 29.83 in 7.0 mi Calm Calm - N/A   Scattered Clouds
12:35 AM 66.2 °F 60.8 °F 83% 29.83 in 10.0 mi Calm Calm - N/A   Overcast
12:55 AM 66.2 °F 62.6 °F 88% 29.83 in 7.0 mi ESE 3.5 mph - N/A   Scattered Clouds
1:15 AM 64.4 °F 60.8 °F 88% 29.82 in 5.0 mi Calm Calm - N/A   Clear
1:35 AM 64.4 °F 59.0 °F 83% 29.83 in 3.0 mi Calm Calm - N/A   Haze
1:55 AM 62.6 °F 59.0 °F 88% 29.83 in 2.5 mi Calm Calm - N/A   Clear
2:15 AM 62.6 °F 59.0 °F 88% 29.83 in 2.5 mi Calm Calm - N/A   Clear
2:35 AM 62.6 °F 57.2 °F 82% 29.83 in 1.0 mi Calm Calm - N/A   Mist
2:55 AM 62.6 °F 57.2 °F 82% 29.83 in 0.8 mi Calm Calm - N/A   Mist
3:35 AM 62.6 °F 57.2 °F 82% 29.83 in 0.5 mi Calm Calm - N/A Fog Fog
3:55 AM 62.6 °F 57.2 °F 82% 29.83 in 1.5 mi Calm Calm - N/A   Mist
4:15 AM 62.6 °F 59.0 °F 88% 29.83 in 0.8 mi Calm Calm - N/A   Mist
4:35 AM 62.6 °F 57.2 °F 82% 29.83 in 0.5 mi Calm Calm - N/A   Haze
4:55 AM 62.6 °F 57.2 °F 82% 29.83 in 0.8 mi Calm Calm - N/A   Haze
5:15 AM 64.4 °F 59.0 °F 83% 29.83 in 4.0 mi East 4.6 mph - N/A   Haze
5:35 AM 62.6 °F 59.0 °F 88% 29.84 in 3.0 mi Calm Calm - N/A Rain Light Rain
5:55 AM 62.6 °F 57.2 °F 82% 29.84 in 2.5 mi Calm Calm - N/A   Overcast
6:35 AM 62.6 °F 57.2 °F 82% 29.84 in 1.8 mi Calm Calm - N/A   Mostly Cloudy
6:55 AM 62.6 °F 57.2 °F 82% 29.84 in 2.0 mi Calm Calm - N/A   Mostly Cloudy
7:15 AM 60.8 °F 55.4 °F 82% 29.84 in 0.2 mi Calm Calm - N/A   Haze
7:35 AM 62.6 °F 57.2 °F 82% 29.85 in 0.2 mi Calm Calm - N/A Fog Fog
7:55 AM 60.8 °F 55.4 °F 82% 29.85 in 0.2 mi Calm Calm - N/A Fog Fog
8:15 AM 62.6 °F 57.2 °F 82% 29.86 in 0.8 mi SSW 3.5 mph - N/A Rain Light Rain
8:35 AM 66.2 °F 62.6 °F 88% 29.86 in 10.0 mi SW 11.5 mph - 0.02 in   Overcast
8:55 AM 66.2 °F 62.6 °F 88% 29.87 in 7.0 mi SSW 15.0 mph 18.4 mph 0.03 in Rain Light Rain
9:15 AM 66.2 °F 62.6 °F 88% 29.87 in 10.0 mi SSW 9.2 mph - 0.01 in   Scattered Clouds
9:35 AM 68.0 °F 62.6 °F 83% 29.87 in 10.0 mi SSW 3.5 mph - 0.01 in   Clear
9:55 AM 69.8 °F 62.6 °F 78% 29.86 in 10.0 mi South 8.1 mph - 0.01 in   Clear
10:15 AM 69.8 °F 62.6 °F 78% 29.86 in 10.0 mi South 9.2 mph - N/A   Clear
10:55 AM 69.8 °F 62.6 °F 78% 29.86 in 10.0 mi SSW 10.4 mph - N/A   Scattered Clouds
11:15 AM 71.6 °F 62.6 °F 73% 29.86 in 10.0 mi South 10.4 mph - N/A   Mostly Cloudy
11:35 AM 71.6 °F 62.6 °F 73% 29.86 in 10.0 mi South 11.5 mph 17.3 mph N/A   Scattered Clouds
11:55 AM 73.4 °F 62.6 °F 69% 29.85 in 10.0 mi South 11.5 mph - N/A   Scattered Clouds
12:15 PM 73.4 °F 62.6 °F 69% 29.85 in 10.0 mi South 10.4 mph - N/A   Mostly Cloudy
12:35 PM 73.4 °F 62.6 °F 69% 29.84 in 10.0 mi South 12.7 mph - N/A   Overcast
12:55 PM 73.4 °F 62.6 °F 69% 29.83 in 10.0 mi South 11.5 mph - N/A   Overcast
1:15 PM 73.4 °F 60.8 °F 65% 29.82 in 10.0 mi South 11.5 mph - N/A   Overcast
1:35 PM 73.4 °F 60.8 °F 65% 29.81 in 10.0 mi SSE 10.4 mph - N/A   Mostly Cloudy
1:55 PM 75.2 °F 60.8 °F 61% 29.80 in 10.0 mi South 13.8 mph - N/A   Scattered Clouds
2:15 PM 73.4 °F 62.6 °F 69% 29.80 in 10.0 mi South 15.0 mph - N/A   Mostly Cloudy
2:35 PM 73.4 °F 62.6 °F 69% 29.79 in 10.0 mi South 9.2 mph - N/A   Overcast
2:55 PM 75.2 °F 62.6 °F 65% 29.78 in 10.0 mi SSE 8.1 mph - N/A   Overcast
3:15 PM 75.2 °F 62.6 °F 65% 29.78 in 10.0 mi South 13.8 mph 18.4 mph N/A   Overcast
3:35 PM 75.2 °F 62.6 °F 65% 29.78 in 10.0 mi South 13.8 mph - N/A   Overcast
3:55 PM 73.4 °F 62.6 °F 69% 29.78 in 10.0 mi South 12.7 mph - N/A   Overcast
4:15 PM 73.4 °F 62.6 °F 69% 29.78 in 10.0 mi South 12.7 mph - N/A   Overcast
4:35 PM 73.4 °F 62.6 °F 69% 29.78 in 10.0 mi SSE 9.2 mph - N/A   Overcast
4:55 PM 73.4 °F 62.6 °F 69% 29.78 in 10.0 mi SSE 8.1 mph - N/A   Overcast
5:15 PM 73.4 °F 62.6 °F 69% 29.78 in 10.0 mi SSE 6.9 mph - N/A   Overcast
5:35 PM 73.4 °F 62.6 °F 69% 29.78 in 10.0 mi ESE 5.8 mph - N/A   Overcast
5:55 PM 73.4 °F 62.6 °F 69% 29.78 in 10.0 mi SSE 8.1 mph - N/A   Overcast
6:15 PM 71.6 °F 62.6 °F 73% 29.79 in 10.0 mi SSE 6.9 mph - N/A   Mostly Cloudy
6:35 PM 71.6 °F 62.6 °F 73% 29.79 in 10.0 mi SSE 6.9 mph - N/A   Mostly Cloudy
6:55 PM 71.6 °F 62.6 °F 73% 29.80 in 10.0 mi SSE 8.1 mph - N/A   Mostly Cloudy
7:15 PM 71.6 °F 62.6 °F 73% 29.81 in 10.0 mi SSE 8.1 mph - N/A   Overcast
7:35 PM 71.6 °F 62.6 °F 73% 29.81 in 10.0 mi SSE 5.8 mph - N/A   Overcast
7:55 PM 71.6 °F 62.6 °F 73% 29.82 in 10.0 mi South 4.6 mph - N/A   Overcast
8:15 PM 69.8 °F 62.6 °F 78% 29.83 in 10.0 mi South 3.5 mph - N/A   Overcast
8:35 PM 69.8 °F 62.6 °F 78% 29.83 in 10.0 mi SSE 4.6 mph - N/A   Overcast
8:55 PM 71.6 °F 62.6 °F 73% 29.83 in 10.0 mi SE 5.8 mph - N/A   Overcast
9:15 PM 69.8 °F 62.6 °F 78% 29.83 in 10.0 mi SE 4.6 mph - N/A   Mostly Cloudy
9:35 PM 69.8 °F 62.6 °F 78% 29.83 in 10.0 mi SE 5.8 mph - N/A   Mostly Cloudy
9:55 PM 69.8 °F 62.6 °F 78% 29.84 in 10.0 mi SE 5.8 mph - N/A   Scattered Clouds
10:15 PM 69.8 °F 62.6 °F 78% 29.85 in 10.0 mi SSE 6.9 mph - N/A   Mostly Cloudy
10:35 PM 69.8 °F 62.6 °F 78% 29.84 in 10.0 mi SSE 6.9 mph - N/A   Mostly Cloudy
10:55 PM 69.8 °F 62.6 °F 78% 29.84 in 10.0 mi SSE 5.8 mph - N/A   Mostly Cloudy
11:35 PM 69.8 °F 62.6 °F 78% 29.84 in 10.0 mi SSE 5.8 mph - N/A   Overcast
11:55 PM 69.8 °F 62.6 °F 78% 29.84 in 10.0 mi SSE 8.1 mph - N/A   Mostly Cloudy